Overview Statistics Trail Chart Weather Telemetry Raw packets
 

This is the latest recevied weather packets stored in our database for station/object 4S6DRJ-13. If no packets are shown the sender has not sent any weather packets the latest 10 day(s).

<< 76 77 78 79 80 81 82 >>
Time Temp. Humidity Pressure Rain* Wind** Luminosity Snow
1788338115 31.11° C 67% 1008.5 hPa 0 mm 0.89 m/s, 253° 368 W/m² -
1788338054 31.11° C 68% 1008.6 hPa 0 mm 0.89 m/s, 248° 351 W/m² -
1788337993 31.11° C 68% 1008.4 hPa 0 mm 2.24 m/s, 306° 1116 W/m² -
1788337932 31.11° C 69% 1008.6 hPa 0 mm 2.68 m/s, 227° 1122 W/m² -
1788337871 31.11° C 73% 1008.5 hPa 0 mm 1.34 m/s, 89° 1126 W/m² -
1788337810 31.11° C 73% 1008.4 hPa 0 mm 1.34 m/s, 227° 1128 W/m² -
1788337749 31.11° C 73% 1008.5 hPa 0 mm 1.79 m/s, 234° 432 W/m² -
1788337688 31.11° C 73% 1008.5 hPa 0 mm 0.89 m/s, 252° 426 W/m² -
1788337627 31.11° C 73% 1008.5 hPa 0 mm 1.34 m/s, 211° 547 W/m² -
1788337566 31.11° C 72% 1008.5 hPa 0 mm 1.79 m/s, 186° 1131 W/m² -
1788337505 31.11° C 72% 1008.6 hPa 0 mm 2.24 m/s, 242° 421 W/m² -
1788337445 31.11° C 71% 1008.6 hPa 0 mm 2.68 m/s, 202° 452 W/m² -
1788337383 31.11° C 71% 1008.7 hPa 0 mm 2.24 m/s, 151° 957 W/m² -
1788337322 31.11° C 71% 1008.6 hPa 0 mm 1.34 m/s, 198° 1137 W/m² -
1788337261 31.11° C 71% 1008.8 hPa 0 mm 2.24 m/s, 277° 497 W/m² -
1788337200 31.11° C 72% 1008.7 hPa 0 mm 1.79 m/s, 274° 493 W/m² -
1788337139 31.11° C 72% 1008.8 hPa 0 mm 0.89 m/s, 252° 1130 W/m² -
1788337078 31.11° C 70% 1008.6 hPa 0 mm 2.24 m/s, 300° 630 W/m² -
1788337017 31.11° C 69% 1008.7 hPa 0 mm 2.24 m/s, 274° 274 W/m² -
1788336981 31.11° C 69% 1008.5 hPa 0 mm 1.34 m/s, 288° 240 W/m² -
1788336895 31.11° C 68% 1008.8 hPa 0 mm 2.68 m/s, 296° 245 W/m² -
1788336834 31.11° C 69% 1008.7 hPa 0 mm 1.34 m/s, 307° 1117 W/m² -
1788336773 31.11° C 70% 1009 hPa 0 mm 1.34 m/s, 263° 1118 W/m² -
1788336712 31.67° C 69% 1008.7 hPa 0 mm 2.24 m/s, 298° 1118 W/m² -
1788336651 31.67° C 68% 1008.6 hPa 0 mm 2.24 m/s, 110° 1121 W/m² -

* Rain latest hour (hover to see other rain measurements)
** Current wind speed in m/s (hover to see current wind gust speed)